Tracking 28790 objects as of 19-Apr-2024
HD Live streaming from Space Station
objects crossing your sky now

SL-14 R/B

Track SL-14 R/B now!
10-day predictions
SL-14 R/B is classified as:


NORAD ID: 20511
Int'l Code: 1990-018B
Perigee: 622.0 km
Apogee: 644.8 km
Inclination: 82.5 °
Period: 97.2 minutes
Semi major axis: 7004 km
RCS: 4.7836 m2 (large)
Launch date: February 28, 1990
Source: Commonwealth of Independent States (former USSR) (CIS)
Launch site: PLESETSK MISSILE AND SPACE COMPLEX (PKMTR)

Note: This is a ROCKET BODY
Your satellite tracking list
Your tracking list is empty




NASA's NSSDC Master Catalog

Two Line Element Set (TLE):
1 20511U 90018B   24110.51681007  .00001092  00000-0  13786-3 0  9993
2 20511  82.5208 146.7547 0016264 192.8295 167.2507 14.80961367841629
Source of the keplerian elements: AFSPC